Location: Newark
(44.6768°N, 22.5302°E)
Time: 00:06:21
(UTC+00:00)

LO-87 - Visible Passes

Search period start: 28 June 2022 00:00
Search period end: 08 July 2022 00:00
Orbit: 454 x 468 km, 97.4° (Epoch: 27 June)

Date Brightness Start Highest point End Pass type
(mag) Time Alt. Az. Time Alt. Az. Time Alt. Az.
28 Jun ? 21:53:59 66° ENE 21:53:59 66° ENE 21:57:18 10° N visible
29 Jun ? 21:22:06 26° E 21:22:24 26° ENE 21:25:21 10° NNE visible
29 Jun ? 22:55:59 18° W 22:55:59 18° W 22:57:56 10° NW visible
30 Jun ? 20:50:13 11° E 20:51:05 12° ENE 20:52:29 10° NE visible
30 Jun ? 22:24:05 43° WNW 22:24:05 43° WNW 22:27:00 10° NNW visible
01 Jul ? 21:52:11 62° ENE 21:52:11 62° ENE 21:55:28 10° N visible
02 Jul ? 21:20:16 25° ENE 21:20:33 25° ENE 21:23:27 10° NNE visible
02 Jul ? 22:54:08 19° WNW 22:54:08 19° WNW 22:56:08 10° NW visible
03 Jul ? 20:48:19 11° ENE 20:49:11 11° ENE 20:50:22 10° NE visible
03 Jul ? 22:22:11 46° WNW 22:22:11 46° WNW 22:25:06 10° NNW visible
04 Jul ? 21:50:14 57° ENE 21:50:14 57° ENE 21:53:29 10° N visible
05 Jul ? 21:18:16 23° ENE 21:18:32 24° ENE 21:21:22 10° NNE visible
05 Jul ? 22:52:08 20° WNW 22:52:08 20° WNW 22:54:10 10° NW visible
06 Jul ? 20:46:17 10° ENE 20:47:07 11° ENE 20:48:01 10° NE visible
06 Jul ? 22:20:08 48° WNW 22:20:08 48° WNW 22:23:02 10° NNW visible
07 Jul ? 21:48:08 53° ENE 21:48:08 53° ENE 21:51:20 10° N visible
